Погода в Сычевке

Россия / Смоленская область     55°49′53″N   34°16′40″E
темп.,
°C
ветер,
м/с
пор.,
м/с
влажн.,
%
обл.,
%
осадки,
мм/ч
давл.,
гПа
погр.,
м
6 мая, чт
чт600:00+8ююв3892100 0.0 1005158
03:00+8ю5139092 0.0 1003275
06:00+8ю61593100 0.0 1001375
09:00+11ю91584100 0.1 1000855
12:00+12ю111875100 0.1 9981220
15:00+5з81391100 1.4 1001658
18:00+7юз611855 0.1 1003791
21:00+6юз6138499 0.2 1005592
7 мая, пт
пт700:00+4юз614910 0.0 1007482
03:00+3юз613891 0.0 1008413
06:00+2юз512900 0.0 1010339
09:00+8юз61166100 0.0 1010783
12:00+8ююз7137679 0.6 10101394
15:00+11ююз71269100 1.6 10101494
18:00+11ююз5976100 0.8 1009779
21:00+8ю3987100 1.5 1009332
8 мая, сб
сб800:00+8ююв81792100 2.4 10061370
03:00+9ю71493100 2.6 1004782
06:00+9ю61295100 0.8 1003655
09:00+9ю51094100 1.8 1002644
12:00+11ююз5779100 1.3 10001057
15:00+11юз71076100 3.1 10011167
18:00+4з91293100 0.9 1004945
21:00+4з81483100 1.0 1007994
9 мая, вс
вс900:00+4з7118699 0.0 1009918
03:00+3з6118689 0.1 1012909
06:00+3з6108398 0.0 1015971
09:00+6зсз69694 0.0 1017865
12:00+10зсз68465 0.0 10191806
15:00+11сз68405 0.0 10212034
18:00+11ссз36515 0.0 10222085
21:00+7ююз115984 0.0 102410
10 мая, пн
пн1000:00+4зюз227218 0.0 102620
03:00+3юз227536 0.0 102716
06:00+4ююз337572 0.0 102963
09:00+10ююз35595 0.0 1029463
12:00+13юз455038 0.0 10281337
15:00+14зюз345361 0.0 10281058
18:00+15юз23575 0.0 1028891
21:00+10ю22720 0.0 102812